Date String (YYYY-MM-DD hh:mm:ss) UTC,Instrument flags,Ambient pressure (hPa),Sample flow (lpm),Bypass flow (lpm),Sample temperature (°C),Ambient temperature (°C),ASC tube jacket temperature (°C),LED temperature (°C),Box temperature (°C),Sample RH (%),Span deviation,Mass concentration (μg/m³),Mass concentration (μg/m³),Mass concentration (μg/m³)
DateTimeUTC,F1_M11,P_M11,Q1_M11,Q2_M11,T1_M11,T2_M11,T3_M11,T4_M11,T5_M11,U1_M11,ZSPAN_M11,X0_M11,X2_M11,X1_M11
2022-07-10 11:00:00,,0830.0,5.00,0.00,29.7,28.1,00.0,38.5,31.5,14.3,0000.0,0006.91,0003.30,0002.74
2022-07-10 11:01:00,,0830.0,5.00,0.00,29.7,28.3,00.0,38.5,31.6,14.3,0000.0,0007.22,0003.30,0002.74
2022-07-10 11:02:00,,0830.1,4.99,0.00,29.7,28.4,00.0,38.5,31.6,14.3,0000.0,0007.36,0003.31,0002.73
2022-07-10 11:03:00,,0830.1,4.99,0.00,29.8,28.5,00.0,38.5,31.6,14.3,0000.0,0007.78,0003.33,0002.74
2022-07-10 11:04:00,,0830.1,5.00,0.00,29.8,28.6,00.0,38.5,31.7,14.3,0000.0,0008.17,0003.35,0002.74
2022-07-10 11:05:00,,0830.1,5.01,0.00,29.8,28.6,00.0,38.5,31.7,14.3,0000.0,0008.26,0003.35,0002.74
2022-07-10 11:06:00,,0830.1,5.00,0.00,29.8,28.7,00.0,38.5,31.8,14.3,0000.0,0008.17,0003.36,0002.75
2022-07-10 11:07:00,,0830.1,5.00,0.00,29.9,28.8,00.0,38.6,31.7,14.2,0000.0,0008.11,0003.37,0002.76
2022-07-10 11:08:00,,0830.1,4.99,0.00,29.9,28.8,00.0,38.6,31.8,14.1,0000.0,0007.97,0003.38,0002.77
2022-07-10 11:09:00,,0830.1,5.01,0.00,29.9,28.4,00.0,38.6,31.8,14.0,0000.0,0008.18,0003.38,0002.79
2022-07-10 11:10:00,,0830.0,5.00,0.00,29.8,27.5,00.0,38.5,31.6,14.2,0000.0,0008.27,0003.37,0002.80
2022-07-10 11:11:00,,0830.0,5.02,0.00,29.8,27.1,00.0,38.4,31.5,14.2,0000.0,0007.75,0003.36,0002.78
2022-07-10 11:12:00,,0830.1,4.99,0.00,29.7,27.1,00.0,38.4,31.3,14.2,0000.0,0007.43,0003.35,0002.74
2022-07-10 11:13:00,,0830.1,5.01,0.00,29.6,27.2,00.0,38.4,31.3,14.3,0000.0,0007.40,0003.35,0002.72
2022-07-10 11:14:00,,0830.1,4.99,0.00,29.6,27.3,00.0,38.4,31.3,14.5,0000.0,0006.62,0003.30,0002.68
2022-07-10 11:15:00,,0830.1,5.00,0.00,29.6,27.5,00.0,38.4,31.3,14.4,0000.0,0006.94,0003.27,0002.65
2022-07-10 11:16:00,,0830.1,5.01,0.00,29.6,27.7,00.0,38.4,31.4,14.4,0000.0,0007.14,0003.26,0002.62
2022-07-10 11:17:00,,0830.1,4.99,0.00,29.6,27.8,00.0,38.4,31.4,14.6,0000.0,0007.38,0003.23,0002.58
2022-07-10 11:18:00,,0830.1,5.01,0.00,29.6,28.0,00.0,38.4,31.4,14.9,0000.0,0007.39,0003.22,0002.56
2022-07-10 11:19:00,,0830.1,5.00,0.00,29.6,28.1,00.0,38.4,31.5,15.1,0000.0,0007.36,0003.20,0002.54
2022-07-10 11:20:00,,0830.1,5.01,0.00,29.6,28.2,00.0,38.4,31.5,15.0,0000.0,0007.65,0003.21,0002.51
2022-07-10 11:21:00,,0830.1,5.00,0.00,29.6,28.3,00.0,38.4,31.5,14.8,0000.0,0007.76,0003.21,0002.48
2022-07-10 11:22:00,,0830.1,5.00,0.00,29.7,28.4,00.0,38.4,31.6,14.8,0000.0,0008.01,0003.21,0002.47
2022-07-10 11:23:00,,0830.2,4.99,0.00,29.7,28.5,00.0,38.4,31.6,14.7,0000.0,0007.94,0003.20,0002.48
2022-07-10 11:24:00,,0830.1,5.00,0.00,29.7,28.6,00.0,38.5,31.6,14.7,0000.0,0007.94,0003.21,0002.51
2022-07-10 11:25:00,,0830.1,5.01,0.00,29.8,28.7,00.0,38.5,31.6,14.6,0000.0,0008.68,0003.21,0002.53
2022-07-10 11:26:00,,0830.1,5.01,0.00,29.8,28.7,00.0,38.5,31.7,14.6,0000.0,0008.47,0003.20,0002.55
2022-07-10 11:27:00,,0830.2,4.99,0.00,29.8,28.8,00.0,38.5,31.7,14.6,0000.0,0008.87,0003.20,0002.56
2022-07-10 11:28:00,,0830.2,5.00,0.00,29.8,28.8,00.0,38.5,31.8,14.5,0000.0,0008.88,0003.20,0002.57
2022-07-10 11:29:00,,0830.1,5.01,0.00,29.9,28.9,00.0,38.6,31.8,14.4,0000.0,0008.89,0003.21,0002.57
2022-07-10 11:30:00,,0830.1,4.99,0.00,29.9,28.7,00.0,38.5,31.8,14.3,0000.0,0008.90,0003.21,0002.57
2022-07-10 11:31:00,,0830.1,4.99,0.00,29.9,27.9,00.0,38.5,31.7,14.3,0000.0,0008.59,0003.20,0002.58
2022-07-10 11:32:00,,0830.2,5.00,0.00,29.8,27.6,00.0,38.5,31.6,14.4,0000.0,0008.63,0003.18,0002.58
2022-07-10 11:33:00,,0830.2,5.00,0.00,29.8,27.6,00.0,38.5,31.5,14.4,0000.0,0008.66,0003.18,0002.59
2022-07-10 11:34:00,,0830.3,5.00,0.00,29.7,27.7,00.0,38.5,31.5,14.5,0000.0,0008.77,0003.19,0002.58
2022-07-10 11:35:00,,0830.2,5.00,0.00,29.7,27.8,00.0,38.5,31.5,14.5,0000.0,0009.14,0003.19,0002.57
2022-07-10 11:36:00,,0830.3,5.00,0.00,29.7,28.0,00.0,38.5,31.5,14.6,0000.0,0008.34,0003.18,0002.56
2022-07-10 11:37:00,,0830.3,5.00,0.00,29.7,28.1,00.0,38.5,31.5,14.5,0000.0,0008.21,0003.19,0002.55
2022-07-10 11:38:00,,0830.4,5.00,0.00,29.7,28.2,00.0,38.5,31.5,14.5,0000.0,0007.53,0003.19,0002.54
2022-07-10 11:39:00,,0830.4,5.01,0.00,29.7,28.3,00.0,38.5,31.6,14.6,0000.0,0007.07,0003.18,0002.54
2022-07-10 11:40:00,,0830.4,5.00,0.00,29.8,28.4,00.0,38.5,31.6,14.5,0000.0,0007.22,0003.21,0002.55
2022-07-10 11:41:00,,0830.4,4.99,0.00,29.8,28.5,00.0,38.5,31.7,14.5,0000.0,0007.30,0003.21,0002.56
2022-07-10 11:42:00,,0830.4,5.00,0.00,29.8,28.6,00.0,38.5,31.7,14.5,0000.0,0007.37,0003.19,0002.57
2022-07-10 11:43:00,,0830.3,5.00,0.00,29.8,28.7,00.0,38.5,31.8,14.5,0000.0,0007.21,0003.19,0002.57
2022-07-10 11:44:00,,0830.3,5.00,0.00,29.8,28.7,00.0,38.6,31.8,14.4,0000.0,0007.42,0003.19,0002.59
2022-07-10 11:45:00,,0830.4,5.01,0.00,29.9,28.8,00.0,38.6,31.8,14.4,0000.0,0007.32,0003.19,0002.61
2022-07-10 11:46:00,,0830.4,5.00,0.00,29.9,28.9,00.0,38.6,31.8,14.4,0000.0,0006.74,0003.18,0002.63
2022-07-10 11:47:00,,0830.4,5.00,0.00,29.9,28.7,00.0,38.6,31.8,14.3,0000.0,0007.24,0003.19,0002.65
2022-07-10 11:48:00,,0830.4,5.01,0.00,29.9,27.9,00.0,38.5,31.7,14.3,0000.0,0007.36,0003.20,0002.68
2022-07-10 11:49:00,,0830.4,5.00,0.00,29.8,27.6,00.0,38.5,31.6,14.3,0000.0,0007.44,0003.20,0002.71
2022-07-10 11:50:00,,0830.4,4.99,0.00,29.8,27.6,00.0,38.5,31.5,14.4,0000.0,0007.54,0003.24,0002.72
2022-07-10 11:51:00,,0830.4,5.00,0.00,29.7,27.7,00.0,38.5,31.5,14.5,0000.0,0007.90,0003.23,0002.72
2022-07-10 11:52:00,,0830.4,5.00,0.00,29.7,27.8,00.0,38.5,31.5,14.4,0000.0,0008.33,0003.23,0002.73
2022-07-10 11:53:00,,0830.3,5.00,0.00,29.7,27.9,00.0,38.5,31.5,14.4,0000.0,0008.30,0003.27,0002.74
2022-07-10 11:54:00,,0830.4,4.99,0.00,29.7,28.1,00.0,38.5,31.5,14.3,0000.0,0007.93,0003.33,0002.75
2022-07-10 11:55:00,,0830.5,5.01,0.00,29.7,28.2,00.0,38.5,31.5,14.4,0000.0,0007.69,0003.37,0002.75
2022-07-10 11:56:00,,0830.5,5.00,0.00,29.7,28.3,00.0,38.5,31.6,14.3,0000.0,0007.85,0003.37,0002.74
2022-07-10 11:57:00,,0830.6,5.00,0.00,29.8,28.4,00.0,38.5,31.6,14.4,0000.0,0008.01,0003.37,0002.74
2022-07-10 11:58:00,,0830.5,4.99,0.00,29.8,28.5,00.0,38.5,31.7,14.5,0000.0,0008.47,0003.37,0002.75
2022-07-10 11:59:00,,0830.5,5.01,0.00,29.8,28.6,00.0,38.5,31.7,14.5,0000.0,0008.79,0003.38,0002.74
